Date String (YYYY-MM-DD hh:mm:ss) UTC,Instrument flags,Ambient pressure (hPa),Sample flow (lpm),Bypass flow (lpm),Sample temperature (°C),Ambient temperature (°C),ASC tube jacket temperature (°C),LED temperature (°C),Box temperature (°C),Sample RH (%),Span deviation,Mass concentration (μg/m³),Mass concentration (μg/m³),Mass concentration (μg/m³)
DateTimeUTC,F1_M11,P_M11,Q1_M11,Q2_M11,T1_M11,T2_M11,T3_M11,T4_M11,T5_M11,U1_M11,ZSPAN_M11,X2_M11,X0_M11,X1_M11
2023-01-17 16:00:00,,0814.5,5.00,0.00,22.7,21.7,00.0,31.4,24.5,13.5,-000.6,0007.27,0011.65,0006.77
2023-01-17 16:01:00,,0814.3,5.03,0.00,22.7,21.6,00.0,31.4,24.5,13.6,-000.6,0007.20,0011.71,0006.72
2023-01-17 16:02:00,,0814.3,5.01,0.00,22.7,21.6,00.0,31.5,24.5,13.6,-000.3,0007.10,0011.59,0006.64
2023-01-17 16:03:00,,0814.3,5.00,0.00,22.7,21.6,00.0,31.5,24.5,13.7,0000.1,0007.02,0011.50,0006.56
2023-01-17 16:04:00,,0814.2,4.99,0.00,22.7,21.6,00.0,31.5,24.5,13.9,0000.1,0006.89,0010.95,0006.45
2023-01-17 16:05:00,,0814.2,5.00,0.00,22.7,21.6,00.0,31.5,24.5,13.6,-000.3,0006.79,0010.83,0006.30
2023-01-17 16:06:00,,0814.3,4.99,0.00,22.7,21.6,00.0,31.5,24.5,13.4,-000.2,0006.57,0010.64,0006.08
2023-01-17 16:07:00,,0814.3,5.00,0.00,22.7,21.6,00.0,31.5,24.5,13.1,-000.7,0006.36,0010.50,0005.86
2023-01-17 16:08:00,,0814.1,4.99,0.00,22.7,21.6,00.0,31.5,24.5,12.8,-001.2,0006.14,0009.89,0005.63
2023-01-17 16:09:00,,0814.4,4.99,0.00,22.7,21.6,00.0,31.5,24.6,13.3,-001.2,0005.95,0009.45,0005.45
2023-01-17 16:10:00,,0814.3,4.99,0.00,22.7,21.6,00.0,31.5,24.6,13.4,-000.4,0005.73,0009.06,0005.25
2023-01-17 16:11:00,,0814.5,5.01,0.00,22.7,21.6,00.0,31.5,24.6,13.4,0000.0,0005.54,0008.88,0005.06
2023-01-17 16:12:00,,0814.3,5.00,0.00,22.7,21.5,00.0,31.5,24.6,13.6,0000.1,0005.34,0008.54,0004.88
2023-01-17 16:13:00,,0814.3,4.99,0.00,22.7,21.6,00.0,31.5,24.6,13.7,0000.1,0005.20,0008.36,0004.71
2023-01-17 16:14:00,,0814.4,4.99,0.00,22.7,21.6,00.0,31.5,24.6,13.5,0000.0,0005.05,0008.16,0004.58
2023-01-17 16:15:00,,0814.3,5.00,0.00,22.8,21.6,00.0,31.5,24.5,13.6,0000.0,0004.96,0008.09,0004.49
2023-01-17 16:16:00,,0814.2,5.00,0.00,22.8,21.6,00.0,31.6,24.6,13.3,0000.0,0004.89,0008.01,0004.44
2023-01-17 16:17:00,,0814.4,4.99,0.00,22.8,21.6,00.0,31.6,24.6,13.4,0000.0,0004.88,0007.94,0004.47
2023-01-17 16:18:00,,0814.2,5.00,0.00,22.8,21.7,00.0,31.6,24.6,13.7,0000.0,0004.96,0008.03,0004.56
2023-01-17 16:19:00,,0814.3,5.00,0.00,22.8,21.7,00.0,31.6,24.6,13.6,0000.0,0005.04,0008.05,0004.66
2023-01-17 16:20:00,,0814.2,5.00,0.00,22.8,21.7,00.0,31.6,24.6,13.8,0000.0,0005.11,0008.01,0004.75
2023-01-17 16:21:00,,0814.3,5.00,0.00,22.8,21.7,00.0,31.6,24.6,13.7,0000.0,0005.19,0008.03,0004.86
2023-01-17 16:22:00,,0814.4,5.00,0.00,22.8,21.7,00.0,31.6,24.7,13.5,0000.0,0005.28,0008.07,0004.97
2023-01-17 16:23:00,,0814.2,5.01,0.00,22.9,21.7,00.0,31.6,24.7,13.8,0000.0,0005.37,0008.14,0005.07
2023-01-17 16:24:00,,0814.3,4.99,0.00,22.9,21.7,00.0,31.6,24.7,14.1,0000.0,0005.44,0008.19,0005.15
2023-01-17 16:25:00,,0814.2,4.98,0.00,22.9,21.8,00.0,31.6,24.7,14.5,0000.0,0005.50,0008.24,0005.20
2023-01-17 16:26:00,,0814.1,5.00,0.00,22.9,21.8,00.0,31.6,24.8,14.0,0000.0,0005.50,0008.24,0005.21
2023-01-17 16:27:00,,0814.3,5.00,0.00,22.9,21.8,00.0,31.7,24.7,14.0,0000.0,0005.53,0008.31,0005.23
2023-01-17 16:28:00,,0814.2,4.99,0.00,22.9,21.8,00.0,31.7,24.7,13.4,0000.0,0005.57,0008.34,0005.26
2023-01-17 16:29:00,,0814.2,5.00,0.00,22.9,21.8,00.0,31.7,24.7,13.5,0000.0,0005.58,0008.58,0005.27
2023-01-17 16:30:00,,0814.5,5.00,0.00,23.0,21.8,00.0,31.7,24.8,13.3,0000.0,0005.56,0008.91,0005.28
2023-01-17 16:31:00,,0814.3,5.00,0.00,23.0,21.8,00.0,31.7,24.8,13.2,0000.0,0005.56,0008.98,0005.30
2023-01-17 16:32:00,,0814.3,5.00,0.00,23.0,21.9,00.0,31.7,24.8,13.5,0000.0,0005.57,0008.99,0005.31
2023-01-17 16:33:00,,0814.5,5.00,0.00,23.0,21.9,00.0,31.7,24.8,13.5,0000.0,0005.54,0008.96,0005.29
2023-01-17 16:34:00,,0814.3,5.01,0.00,23.0,21.9,00.0,31.7,24.8,13.5,0000.0,0005.52,0008.97,0005.26
2023-01-17 16:35:00,,0814.4,4.99,0.00,23.0,21.9,00.0,31.7,24.9,13.6,0000.0,0005.51,0009.01,0005.23
2023-01-17 16:36:00,,0814.4,5.01,0.00,23.0,21.9,00.0,31.8,24.8,13.6,-000.0,0005.47,0008.91,0005.21
2023-01-17 16:37:00,,0814.3,4.99,0.00,23.1,21.9,00.0,31.8,24.8,13.4,-000.2,0005.46,0008.93,0005.19
2023-01-17 16:38:00,,0814.4,5.00,0.00,23.1,21.9,00.0,31.8,24.8,13.4,-001.1,0005.42,0008.88,0005.15
2023-01-17 16:39:00,,0814.6,5.00,0.00,23.1,21.9,00.0,31.8,24.9,13.6,-000.9,0005.39,0008.91,0005.12
2023-01-17 16:40:00,,0814.3,5.02,0.00,23.1,21.9,00.0,31.8,24.9,13.6,0000.0,0005.39,0009.07,0005.10
2023-01-17 16:41:00,,0814.4,5.00,0.00,23.1,21.9,00.0,31.8,24.9,13.4,0000.0,0005.35,0008.99,0005.07
2023-01-17 16:42:00,,0814.3,5.01,0.00,23.1,21.9,00.0,31.8,24.9,13.1,0000.0,0005.30,0008.84,0005.03
2023-01-17 16:43:00,,0814.5,4.98,0.00,23.1,22.0,00.0,31.8,24.9,13.4,-000.7,0005.26,0008.84,0004.96
2023-01-17 16:44:00,,0814.3,5.00,0.00,23.1,22.0,00.0,31.9,24.9,13.3,-000.2,0005.23,0008.85,0004.90
2023-01-17 16:45:00,,0814.4,5.00,0.00,23.1,22.0,00.0,31.9,24.9,13.5,-000.4,0005.19,0008.82,0004.83
2023-01-17 16:46:00,,0814.5,5.00,0.00,23.2,22.0,00.0,31.9,24.9,13.8,-000.2,0005.16,0008.84,0004.79
2023-01-17 16:47:00,,0814.5,5.00,0.00,23.2,22.0,00.0,31.9,24.9,13.6,0000.0,0005.17,0009.10,0004.75
2023-01-17 16:48:00,,0814.5,5.00,0.00,23.2,22.0,00.0,31.9,24.9,13.5,0000.0,0005.18,0009.95,0004.70
2023-01-17 16:49:00,,0814.4,5.00,0.00,23.2,22.0,00.0,31.9,24.9,13.4,0000.0,0005.19,0011.29,0004.66
2023-01-17 16:50:00,,0814.4,5.00,0.00,23.2,22.0,00.0,31.9,24.9,13.4,0000.0,0005.19,0011.38,0004.63
2023-01-17 16:51:00,,0814.3,4.99,0.00,23.2,22.0,00.0,31.9,25.0,13.6,0000.0,0005.21,0011.85,0004.61
2023-01-17 16:52:00,,0814.3,5.00,0.00,23.2,22.0,00.0,31.9,25.0,13.8,0000.0,0005.22,0011.41,0004.58
2023-01-17 16:53:00,,0814.4,5.01,0.00,23.2,22.0,00.0,32.0,25.0,14.0,0000.0,0005.22,0011.55,0004.56
2023-01-17 16:54:00,,0814.3,5.01,0.00,23.2,22.0,00.0,32.0,25.0,14.0,0000.0,0005.20,0011.50,0004.57
2023-01-17 16:55:00,,0814.4,5.00,0.00,23.2,22.0,00.0,32.0,25.0,13.8,0000.0,0005.22,0011.55,0004.58
2023-01-17 16:56:00,,0814.3,5.01,0.00,23.2,22.0,00.0,32.0,25.1,13.7,0000.0,0005.22,0011.53,0004.61
2023-01-17 16:57:00,,0814.4,5.00,0.00,23.2,22.0,00.0,32.0,25.1,13.7,0000.0,0005.19,0011.48,0004.62
2023-01-17 16:58:00,,0814.4,5.00,0.00,23.2,22.0,00.0,32.0,25.0,13.8,0000.0,0005.15,0011.28,0004.63
2023-01-17 16:59:00,,0814.5,5.00,0.00,23.3,22.0,00.0,32.0,25.0,13.8,0000.0,0005.10,0010.53,0004.65
